1485288000.95,30523,11.0,73456.0,-9.75,-41.67,-41.87,0,*52
1485288002.2,30524,11.0,73454.8,-9.73,-41.49,-41.81,0,*59
1485288003.46,30525,11.0,73452.5,-9.73,-41.41,-41.67,0,*58
1485288004.66,30526,11.06,73456.0,-9.71,-41.61,-41.87,0,*55
1485288005.89,30527,11.06,73456.8,-9.71,-41.73,-41.81,0,*51
1485288007.11,30528,11.06,73452.5,-9.71,-41.81,-41.99,0,*5A
1485288008.34,30529,11.06,73456.0,-9.71,-41.93,-42.13,0,*59
1485288009.59,30530,11.0,73452.8,-9.67,-42.19,-42.45,0,*54
1485288010.85,30531,11.0,73452.5,-9.71,-42.19,-42.31,0,*51
1485288012.08,30532,11.06,73452.5,-9.71,-42.13,-42.31,0,*58
1485288013.28,30533,11.0,73454.3,-9.71,-41.99,-42.37,0,*5E
1485288014.54,30534,11.06,73456.8,-9.71,-42.19,-42.45,0,*57
1485288015.76,30535,11.06,73456.3,-9.71,-41.99,-42.19,0,*54
1485288017.02,30536,11.06,73456.8,-9.73,-42.19,-42.25,0,*51
1485288018.25,30537,11.06,73454.8,-9.71,-41.81,-41.99,0,*54
1485288019.5,30538,11.06,73456.5,-9.71,-42.31,-42.45,0,*51
1485288020.73,30539,11.06,73452.3,-9.71,-42.19,-42.37,0,*5F
1485288021.96,30540,11.06,73452.3,-9.71,-42.13,-42.19,0,*57
1485288023.18,30541,11.06,73454.8,-9.71,-42.13,-42.45,0,*5F
1485288024.43,30542,11.06,73452.5,-9.67,-42.31,-42.57,0,*58
1485288025.69,30543,11.0,73450.3,-9.71,-42.19,-42.31,0,*54
1485288026.96,30544,11.0,73454.5,-9.71,-42.19,-42.31,0,*53
1485288028.19,30545,11.06,73454.8,-9.73,-42.25,-42.51,0,*59
1485288029.44,30546,11.0,73458.0,-9.73,-42.05,-42.37,0,*58
1485288030.66,30547,11.0,73456.0,-9.71,-41.81,-42.13,0,*52
1485288031.89,30548,11.06,73458.5,-9.71,-41.73,-41.81,0,*58
1485288033.11,30549,11.06,73454.8,-9.71,-41.81,-41.99,0,*5D
1485288034.34,30550,11.06,73452.3,-9.71,-41.99,-42.19,0,*57
1485288035.54,30551,11.0,73450.3,-9.71,-41.99,-42.25,0,*59
1485288036.79,30552,11.0,73454.5,-9.67,-42.19,-42.45,0,*50
1485288038.01,30553,11.06,73454.5,-9.71,-41.73,-41.93,0,*51
1485288039.24,30554,11.0,73450.3,-9.71,-41.99,-42.31,0,*59
1485288040.44,30555,11.0,73452.3,-9.71,-41.99,-42.37,0,*5E
1485288041.67,30556,11.06,73456.3,-9.67,-42.19,-42.37,0,*51
1485288042.87,30557,11.0,73452.0,-9.71,-41.41,-41.61,0,*59
1485288044.09,30558,11.06,73456.8,-9.67,-41.55,-41.73,0,*57
1485288045.34,30559,11.0,73456.0,-9.67,-41.55,-41.81,0,*5B
1485288046.57,30560,11.06,73458.5,-9.67,-41.81,-41.99,0,*51
1485288047.77,30561,11.06,73456.3,-9.71,-41.73,-41.99,0,*5A
1485288048.99,30562,11.0,73458.5,-9.67,-41.81,-42.13,0,*52
1485288050.21,30563,11.06,73458.5,-9.71,-41.73,-41.93,0,*52
1485288051.46,30564,11.0,73450.8,-9.71,-41.81,-41.93,0,*58
1485288052.71,30565,11.0,73450.5,-9.71,-41.55,-41.81,0,*53
1485288053.91,30566,11.0,73452.3,-9.67,-41.61,-41.73,0,*5D
1485288055.11,30567,11.06,73458.3,-9.67,-41.41,-41.73,0,*5E
1485288056.34,30568,11.0,73452.8,-9.67,-41.61,-41.81,0,*5E
1485288057.58,30569,11.06,73456.5,-9.67,-41.55,-41.81,0,*58
1485288058.83,30570,11.06,73456.8,-9.67,-41.81,-41.93,0,*5A
1485288060.05,30571,11.06,73456.3,-9.67,-41.73,-41.93,0,*56
1485288061.29,30572,11.06,73462.8,-9.65,-41.73,-41.93,0,*57
1485288062.5,30573,11.06,73458.8,-9.63,-41.73,-41.87,0,*55
1485288063.73,30574,11.06,73456.8,-9.65,-41.87,-42.25,0,*54
1485288064.98,30575,11.06,73460.5,-9.65,-41.55,-41.73,0,*5A
1485288066.2,30576,11.06,73460.0,-9.65,-41.17,-41.49,0,*56
1485288067.43,30577,11.0,73456.8,-9.63,-41.17,-41.55,0,*5C
1485288068.63,30578,11.0,73460.0,-9.63,-41.49,-41.73,0,*5C
1485288069.84,30579,11.0,73462.3,-9.63,-40.91,-41.11,0,*5D
1485288071.07,30580,11.06,73460.3,-9.65,-40.91,-41.11,0,*5D
1485288072.33,30581,11.0,73458.0,-9.65,-41.35,-41.73,0,*57
1485288073.61,30582,11.06,73456.5,-9.61,-41.67,-41.81,0,*5A
1485288074.87,30583,11.0,73456.3,-9.61,-41.61,-41.81,0,*5D
1485288076.12,30584,11.0,73454.8,-9.61,-41.61,-41.81,0,*5A
1485288077.38,30585,11.06,73456.5,-9.61,-41.67,-41.87,0,*5B
1485288078.65,30586,11.06,73456.5,-9.61,-41.41,-41.67,0,*52
1485288079.91,30587,11.0,73456.3,-9.61,-41.67,-41.87,0,*59
1485288081.11,30588,11.0,73456.0,-9.59,-41.61,-41.87,0,*5B
1485288082.32,30589,11.06,73456.5,-9.59,-41.41,-41.49,0,*5A
1485288083.53,30590,11.0,73458.5,-9.59,-41.03,-41.29,0,*52
1485288084.76,30591,11.06,73460.8,-9.59,-41.03,-41.23,0,*59
1485288085.99,30592,11.06,73458.5,-9.59,-40.85,-41.03,0,*57
1485288087.26,30593,11.06,73460.0,-9.57,-40.91,-40.97,0,*51
1485288088.47,30594,11.0,73456.0,-9.55,-40.91,-41.03,0,*58
1485288089.73,30595,11.0,73452.3,-9.57,-41.41,-41.55,0,*54
1485288090.94,30596,11.06,73456.5,-9.55,-41.61,-41.73,0,*53
1485288092.16,30597,11.06,73452.3,-9.57,-41.41,-41.61,0,*51
1485288093.39,30598,11.06,73452.5,-9.55,-41.61,-41.81,0,*50
1485288094.62,30599,11.0,73450.5,-9.55,-41.93,-42.13,0,*54
1485288095.85,30600,11.0,73448.0,-9.55,-41.23,-41.41,0,*58
1485288097.05,30601,11.0,73450.0,-9.55,-41.41,-41.61,0,*5F
1485288098.25,30602,11.0,73448.0,-9.55,-41.41,-41.61,0,*5C
1485288099.48,30603,11.0,73450.5,-9.55,-41.29,-41.55,0,*54
1485288100.74,30604,11.06,73454.5,-9.53,-41.49,-41.67,0,*52
1485288102.03,30605,11.06,73458.5,-9.53,-41.35,-41.55,0,*59
1485288103.31,30606,11.0,73450.8,-9.53,-41.35,-41.55,0,*5A
1485288104.56,30607,11.0,73452.8,-9.51,-41.93,-41.93,0,*5F
1485288105.81,30608,11.06,73454.8,-9.53,-41.73,-42.05,0,*50
1485288107.07,30609,11.0,73452.5,-9.53,-41.55,-41.73,0,*57
1485288108.36,30610,11.06,73454.0,-9.53,-41.55,-41.67,0,*5A
1485288109.6,30611,11.0,73454.0,-9.53,-41.73,-41.93,0,*54
1485288110.89,30612,11.0,73452.5,-9.53,-41.93,-42.31,0,*52
1485288112.17,30613,11.0,73454.5,-9.53,-42.05,-42.31,0,*5F
1485288113.4,30614,11.06,73458.3,-9.53,-42.13,-42.37,0,*59
1485288114.64,30615,11.0,73454.0,-9.53,-41.73,-41.73,0,*5E
1485288115.89,30616,11.0,73452.8,-9.53,-41.87,-42.05,0,*54
1485288117.17,30617,11.0,73456.0,-9.53,-42.05,-42.31,0,*5B
1485288118.38,30618,11.0,73458.3,-9.55,-42.13,-42.25,0,*50
1485288119.63,30619,11.0,73452.3,-9.51,-41.93,-42.05,0,*5C
1485288120.88,30620,11.0,73454.3,-9.53,-41.73,-42.05,0,*5A
1485288122.14,30621,11.0,73452.8,-9.53,-42.19,-42.37,0,*55
1485288123.37,30622,11.0,73452.5,-9.51,-42.19,-42.51,0,*54
1485288124.6,30623,11.0,73454.8,-9.53,-41.87,-42.13,0,*55
1485288125.85,30624,11.0,73456.3,-9.53,-41.87,-41.93,0,*59
1485288127.11,30625,11.0,73454.8,-9.53,-41.93,-42.13,0,*56
1485288128.36,30626,11.0,73456.5,-9.55,-41.55,-41.81,0,*51
1485288129.61,30627,11.0,73458.0,-9.53,-41.55,-41.73,0,*5B
1485288130.85,30628,11.06,73458.0,-9.53,-41.73,-41.87,0,*5B
1485288132.13,30629,11.0,73454.0,-9.53,-42.05,-42.31,0,*56
1485288133.33,30630,11.0,73456.5,-9.51,-41.87,-41.87,0,*5B
1485288134.59,30631,11.06,73456.5,-9.53,-41.73,-42.05,0,*5A
1485288135.84,30632,11.06,73458.3,-9.51,-41.93,-42.19,0,*58
1485288137.09,30633,11.0,73458.5,-9.53,-41.93,-42.13,0,*51
1485288138.29,30634,11.0,73454.0,-9.51,-41.87,-42.13,0,*51
1485288139.51,30635,11.06,73458.5,-9.51,-41.73,-42.05,0,*5C
1485288140.74,30636,11.0,73454.3,-9.51,-41.93,-42.13,0,*56
1485288142.02,30637,11.0,73452.0,-9.53,-41.93,-42.19,0,*5F
1485288143.3,30638,11.0,73452.3,-9.53,-42.31,-42.57,0,*51
1485288144.55,30639,11.0,73454.0,-9.53,-41.93,-42.13,0,*5B
1485288145.78,30640,11.06,73454.8,-9.51,-41.73,-42.05,0,*5E
1485288147.01,30641,11.0,73452.0,-9.53,-42.13,-42.37,0,*59
1485288148.24,30642,11.0,73454.0,-9.51,-42.19,-42.51,0,*52
1485288149.52,30643,11.0,73454.5,-9.53,-42.05,-42.19,0,*50
1485288150.77,30644,11.0,73452.5,-9.51,-42.05,-42.19,0,*55
1485288152.02,30645,11.06,73456.0,-9.53,-41.93,-42.13,0,*50
1485288153.3,30646,11.0,73454.0,-9.53,-41.93,-42.05,0,*54
1485288154.54,30647,11.0,73454.3,-9.53,-41.87,-41.87,0,*59
1485288155.76,30648,11.0,73456.5,-9.51,-41.73,-42.05,0,*56
1485288157.01,30649,11.0,73458.0,-9.51,-42.05,-42.31,0,*52
1485288158.29,30650,11.0,73458.0,-9.53,-41.93,-42.19,0,*5E
1485288159.52,30651,11.0,73454.8,-9.51,-42.31,-42.51,0,*5A
1485288160.79,30652,11.0,73458.8,-9.53,-42.13,-42.31,0,*5D
1485288162.04,30653,11.0,73456.0,-9.53,-41.87,-42.05,0,*55
1485288163.29,30654,11.0,73456.3,-9.51,-41.93,-42.05,0,*55
1485288164.55,30655,11.0,73454.5,-9.51,-41.93,-42.31,0,*53
1485288165.8,30656,11.0,73458.8,-9.51,-42.31,-42.57,0,*5B
1485288167.05,30657,11.0,73456.3,-9.53,-42.37,-42.57,0,*5E
1485288168.34,30658,11.0,73460.3,-9.53,-42.19,-42.31,0,*5D
1485288169.62,30659,11.06,73458.3,-9.53,-42.05,-42.19,0,*5B
1485288170.85,30660,11.06,73458.5,-9.51,-41.87,-42.05,0,*57
1485288172.1,30661,11.0,73456.3,-9.53,-41.87,-42.05,0,*54
1485288173.3,30662,11.06,73456.3,-9.51,-42.13,-42.37,0,*5A
1485288174.55,30663,11.0,73452.0,-9.51,-42.05,-42.31,0,*5A
1485288175.82,30664,11.0,73456.5,-9.53,-42.13,-42.31,0,*58
1485288177.07,30665,11.0,73458.3,-9.51,-42.05,-42.19,0,*56
1485288178.3,30666,11.0,73458.0,-9.51,-41.55,-41.73,0,*5C
1485288179.56,30667,11.0,73452.8,-9.53,-41.67,-41.73,0,*5E
1485288180.81,30668,11.0,73454.0,-9.51,-41.93,-42.19,0,*57
1485288182.04,30669,11.0,73458.8,-9.53,-41.87,-42.13,0,*5B
1485288183.29,30670,11.0,73452.8,-9.51,-42.05,-42.31,0,*58
1485288184.55,30671,11.0,73454.3,-9.53,-42.19,-42.37,0,*50
1485288185.8,30672,11.0,73454.5,-9.51,-42.05,-42.31,0,*5A
1485288187.0,30673,11.0,73448.5,-9.51,-42.13,-42.37,0,*5A
1485288188.28,30674,11.0,73454.5,-9.53,-42.31,-42.57,0,*59
1485288189.51,30675,11.0,73452.5,-9.51,-42.19,-42.51,0,*56
1485288190.76,30676,11.0,73452.8,-9.51,-41.93,-42.05,0,*55
1485288192.05,30677,11.0,73450.3,-9.53,-41.93,-42.31,0,*51
1485288193.33,30678,11.0,73450.3,-9.53,-41.93,-42.19,0,*54
1485288194.56,30679,11.0,73458.0,-9.51,-41.93,-42.13,0,*5D
1485288195.84,30680,11.0,73454.8,-9.53,-42.05,-42.31,0,*55
1485288197.09,30681,11.0,73452.8,-9.51,-42.31,-42.57,0,*51
1485288198.31,30682,11.0,73458.3,-9.51,-42.51,-42.57,0,*54
1485288199.59,30683,11.0,73452.8,-9.53,-42.05,-42.19,0,*5C
1485288200.85,30684,11.0,73448.8,-9.53,-42.13,-42.19,0,*5C
1485288202.08,30685,11.0,73450.8,-9.53,-42.13,-42.37,0,*51
1485288203.28,30686,11.0,73450.3,-9.51,-42.13,-42.37,0,*50
1485288204.53,30687,11.0,73450.8,-9.51,-42.05,-42.19,0,*5A
1485288205.79,30688,11.0,73454.5,-9.53,-41.93,-42.13,0,*51
1485288207.02,30689,11.0,73452.3,-9.51,-42.13,-42.31,0,*59
1485288208.27,30690,11.0,73454.5,-9.51,-42.31,-42.57,0,*51
1485288209.55,30691,11.0,73456.0,-9.53,-42.31,-42.57,0,*52
1485288210.83,30692,11.0,73452.8,-9.53,-42.19,-42.57,0,*5B
1485288212.08,30693,11.0,73452.3,-9.51,-42.31,-42.57,0,*52
1485288213.33,30694,11.0,73450.8,-9.53,-42.37,-42.57,0,*51
1485288214.59,30695,11.0,73452.8,-9.53,-42.37,-42.57,0,*50
1485288215.84,30696,11.0,73454.3,-9.53,-42.51,-42.69,0,*5E
1485288217.07,30697,11.0,73454.3,-9.53,-42.13,-42.37,0,*52
1485288218.32,30698,11.0,73452.5,-9.51,-42.31,-42.57,0,*59
1485288219.56,30699,11.0,73454.8,-9.53,-42.37,-42.75,0,*5C
1485288220.81,30700,11.0,73452.5,-9.51,-42.19,-42.69,0,*5E
1485288222.04,30701,11.0,73456.0,-9.53,-42.13,-42.37,0,*5C
1485288223.29,30702,11.0,73456.5,-9.51,-41.93,-41.93,0,*5B
1485288224.52,30703,11.0,73454.5,-9.55,-41.93,-41.99,0,*54
1485288225.8,30704,11.0,73454.0,-9.53,-41.93,-42.31,0,*54
1485288227.09,30705,11.0,73452.3,-9.53,-41.93,-42.19,0,*5F
1485288228.34,30706,11.0,73454.0,-9.53,-41.93,-42.37,0,*50
1485288229.6,30707,11.0,73454.8,-9.53,-42.31,-42.37,0,*5A
1485288230.87,30708,11.0,73454.0,-9.53,-42.31,-42.57,0,*53
1485288232.13,30709,11.0,73458.0,-9.53,-42.57,-42.75,0,*52
1485288233.41,30710,11.0,73456.3,-9.53,-42.31,-42.57,0,*5A
1485288234.65,30711,11.0,73452.0,-9.53,-42.13,-42.51,0,*5D
1485288235.92,30712,11.0,73450.8,-9.53,-42.31,-42.57,0,*58
1485288237.18,30713,11.0,73450.0,-9.53,-42.37,-42.57,0,*5F
1485288238.41,30714,11.0,73454.0,-9.53,-42.13,-42.51,0,*58
1485288239.69,30715,11.0,73454.8,-9.53,-42.19,-42.57,0,*55
1485288240.92,30716,11.0,73454.3,-9.55,-42.57,-42.63,0,*5D
1485288242.15,30717,11.0,73458.0,-9.55,-42.57,-42.75,0,*5B
1485288243.38,30718,11.0,73454.3,-9.55,-42.19,-42.37,0,*58
1485288244.61,30719,11.0,73458.8,-9.55,-42.37,-42.57,0,*53
1485288245.82,30720,11.0,73454.8,-9.55,-42.37,-42.63,0,*5E
1485288247.05,30721,11.0,73454.0,-9.55,-42.45,-42.63,0,*5A
1485288248.28,30722,11.0,73456.0,-9.55,-42.25,-42.57,0,*58
1485288249.54,30723,11.0,73454.8,-9.57,-42.13,-42.19,0,*54
1485288250.77,30724,11.0,73452.0,-9.57,-42.13,-42.25,0,*5C
1485288251.98,30725,11.0,73458.3,-9.55,-42.13,-42.25,0,*5F
1485288253.18,30726,11.0,73458.8,-9.55,-42.25,-42.37,0,*5A
1485288254.38,30727,11.0,73454.5,-9.55,-41.99,-42.13,0,*59
1485288255.64,30728,11.0,73452.8,-9.55,-42.19,-42.45,0,*5E
1485288256.91,30729,11.0,73452.0,-9.57,-42.45,-42.57,0,*57
1485288258.14,30730,11.0,73452.0,-9.57,-42.37,-42.63,0,*5D
1485288259.35,30731,11.0,73452.3,-9.55,-42.37,-42.63,0,*5E
1485288260.56,30732,11.0,73458.0,-9.55,-42.37,-42.63,0,*5D
1485288261.81,30733,11.0,73452.3,-9.55,-42.45,-42.57,0,*5E
1485288263.01,30734,11.0,73452.8,-9.55,-42.13,-42.25,0,*5F
1485288264.24,30735,11.0,73454.3,-9.57,-42.13,-42.37,0,*5F
1485288265.45,30736,11.0,73456.3,-9.55,-42.37,-42.63,0,*59
1485288266.68,30737,11.0,73454.3,-9.55,-42.45,-42.63,0,*5D
1485288267.94,30738,11.0,73454.3,-9.57,-42.57,-42.63,0,*53
1485288269.15,30739,11.0,73456.3,-9.55,-42.63,-42.63,0,*57
1485288270.4,30740,11.0,73452.5,-9.57,-42.45,-42.75,0,*58
1485288271.63,30741,11.0,73454.0,-9.55,-42.25,-42.57,0,*5D
1485288272.89,30742,11.0,73454.3,-9.57,-42.57,-42.63,0,*5E
1485288274.14,30743,11.0,73454.0,-9.55,-42.19,-42.45,0,*53
1485288275.37,30744,11.0,73456.3,-9.57,-42.13,-42.25,0,*5A
1485288276.6,30745,11.0,73456.0,-9.57,-42.13,-42.37,0,*58
1485288277.86,30746,11.0,73452.8,-9.57,-42.45,-42.63,0,*59
1485288279.08,30747,11.0,73454.5,-9.55,-42.37,-42.57,0,*58
1485288280.31,30748,11.0,73452.3,-9.57,-42.37,-42.63,0,*52
1485288281.57,30749,11.0,73450.8,-9.57,-42.57,-42.63,0,*55
1485288282.8,30750,11.0,73454.0,-9.57,-42.25,-42.63,0,*58
1485288284.04,30751,11.0,73452.0,-9.57,-42.37,-42.63,0,*5A
1485288285.27,30752,11.0,73454.3,-9.57,-42.37,-42.63,0,*59
1485288286.5,30753,11.0,73458.8,-9.57,-42.25,-42.63,0,*5B
1485288287.74,30754,11.0,73456.8,-9.57,-42.13,-42.25,0,*5B
1485288289.01,30755,11.0,73456.3,-9.57,-42.19,-42.45,0,*56
1485288290.27,30756,11.0,73454.3,-9.57,-42.25,-42.57,0,*59
1485288291.55,30757,11.0,73454.0,-9.57,-42.19,-42.45,0,*54
1485288292.78,30758,11.0,73452.5,-9.57,-42.37,-42.63,0,*53
1485288294.03,30759,11.0,73456.0,-9.59,-42.45,-42.69,0,*53
1485288295.26,30760,11.0,73456.5,-9.59,-42.45,-42.63,0,*53
1485288296.48,30761,11.0,73454.8,-9.59,-42.25,-42.63,0,*54
1485288297.76,30762,11.0,73454.8,-9.61,-42.19,-42.45,0,*57
1485288298.99,30763,11.0,73456.8,-9.59,-42.19,-42.51,0,*58
1485288300.2,30764,11.0,73454.8,-9.59,-42.25,-42.51,0,*50
1485288301.45,30765,11.0,73456.8,-9.57,-42.25,-42.57,0,*59
1485288302.73,30766,11.0,73454.0,-9.57,-42.19,-42.45,0,*56
1485288303.97,30767,11.0,73454.5,-9.57,-42.25,-42.63,0,*5C
1485288305.21,30768,11.0,73454.8,-9.59,-42.31,-42.63,0,*58
1485288306.46,30769,11.0,73456.5,-9.59,-42.45,-42.69,0,*50
1485288307.71,30770,11.0,73458.0,-9.61,-42.51,-42.69,0,*56
1485288308.97,30771,11.0,73458.0,-9.61,-42.51,-42.83,0,*53
1485288310.22,30772,11.0,73456.5,-9.61,-42.51,-42.83,0,*50
1485288311.43,30773,11.0,73456.0,-9.59,-42.25,-42.51,0,*56
1485288312.69,30774,11.0,73458.8,-9.61,-42.51,-42.69,0,*52
1485288313.97,30775,11.0,73454.3,-9.61,-42.45,-42.69,0,*56
1485288315.23,30776,11.0,73456.8,-9.61,-42.51,-42.69,0,*50
1485288316.48,30777,11.0,73460.5,-9.61,-41.99,-42.19,0,*51
1485288317.74,30778,11.0,73454.0,-9.59,-42.05,-42.19,0,*53
1485288318.97,30779,11.0,73454.5,-9.61,-42.25,-42.51,0,*57
1485288320.26,30780,11.0,73456.8,-9.61,-42.19,-42.45,0,*5B
1485288321.49,30781,11.0,73456.5,-9.59,-42.19,-42.25,0,*57
1485288322.75,30782,11.0,73458.3,-9.61,-42.31,-42.51,0,*56
1485288324.01,30783,11.0,73456.5,-9.61,-42.45,-42.63,0,*55
1485288325.27,30784,11.0,73458.5,-9.59,-42.19,-42.31,0,*57
1485288326.55,30785,11.0,73454.0,-9.61,-42.19,-42.45,0,*5E
1485288327.79,30786,11.0,73456.3,-9.61,-42.25,-42.63,0,*56
1485288329.05,30787,11.0,73458.5,-9.61,-42.51,-42.69,0,*5E
1485288330.28,30788,11.0,73456.8,-9.59,-42.51,-42.69,0,*5A
1485288331.56,30789,11.0,73458.5,-9.61,-42.45,-42.69,0,*55
1485288332.8,30790,11.0,73456.0,-9.61,-42.25,-42.63,0,*51
1485288334.05,30791,11.0,73456.0,-9.61,-42.25,-42.45,0,*54
1485288335.29,30792,11.0,73458.3,-9.61,-42.25,-42.51,0,*52
1485288336.55,30793,11.0,73456.0,-9.61,-42.45,-42.63,0,*54
1485288337.83,30794,11.0,73458.3,-9.61,-42.19,-42.45,0,*5E
1485288339.06,30795,11.0,73456.0,-9.63,-42.37,-42.57,0,*52
1485288340.26,30796,11.0,73458.8,-9.63,-42.51,-42.75,0,*51
1485288341.51,30797,11.0,73456.0,-9.63,-42.31,-42.57,0,*56
1485288342.72,30798,11.0,73454.5,-9.63,-42.51,-42.75,0,*5F
1485288343.97,30799,11.0,73456.5,-9.65,-42.57,-42.75,0,*5E
1485288345.22,30800,11.0,73456.3,-9.63,-42.31,-42.57,0,*57
1485288346.48,30801,11.0,73456.3,-9.65,-42.51,-42.69,0,*5B
1485288347.71,30802,11.0,73456.0,-9.65,-42.37,-42.75,0,*55
1485288348.94,30803,11.0,73456.0,-9.65,-42.51,-42.89,0,*57
1485288350.19,30804,11.0,73454.0,-9.65,-42.57,-42.89,0,*56
1485288351.39,30805,11.0,73456.3,-9.63,-42.37,-42.75,0,*54
1485288352.62,30806,11.0,73456.5,-9.63,-42.37,-42.69,0,*5A
1485288353.85,30807,11.0,73458.3,-9.63,-42.57,-42.75,0,*50
1485288355.07,30808,11.0,73454.8,-9.65,-42.25,-42.37,0,*5A
1485288356.35,30809,11.0,73456.8,-9.65,-42.31,-42.57,0,*58
1485288357.56,30810,11.0,73458.8,-9.63,-42.37,-42.75,0,*50
1485288358.83,30811,11.0,73456.3,-9.65,-42.31,-42.57,0,*51
1485288360.07,30812,11.0,73456.3,-9.65,-42.37,-42.75,0,*54
1485288361.3,30813,11.0,73460.0,-9.65,-42.37,-42.75,0,*55
1485288362.55,30814,11.0,73456.3,-9.65,-42.51,-42.69,0,*5F
1485288363.8,30815,11.0,73456.3,-9.67,-42.31,-42.57,0,*57
1485288365.01,30816,11.0,73458.5,-9.67,-42.37,-42.75,0,*52
1485288366.28,30817,11.0,73454.0,-9.65,-42.31,-42.57,0,*57
1485288367.54,30818,11.0,73460.3,-9.65,-42.25,-42.57,0,*5D
1485288368.77,30819,11.0,73458.0,-9.65,-42.51,-42.75,0,*5F
1485288370.0,30820,11.0,73458.0,-9.65,-42.25,-42.51,0,*50
1485288371.23,30821,11.0,73458.3,-9.65,-42.25,-42.37,0,*51
1485288372.46,30822,11.0,73460.5,-9.65,-42.25,-42.51,0,*52
1485288373.7,30823,11.0,73456.8,-9.65,-42.25,-42.51,0,*53
1485288374.97,30824,11.0,73456.3,-9.65,-42.31,-42.57,0,*57
1485288376.2,30825,11.0,73454.8,-9.65,-42.13,-42.37,0,*50
1485288377.45,30826,11.0,73456.0,-9.67,-42.19,-42.45,0,*5E
1485288378.68,30827,11.0,73458.3,-9.65,-42.13,-42.37,0,*52
1485288379.93,30828,11.0,73458.0,-9.65,-42.25,-42.57,0,*5E
1485288381.19,30829,11.0,73452.3,-9.65,-42.57,-42.75,0,*5A
1485288382.39,30830,11.0,73456.5,-9.67,-42.37,-42.63,0,*51
1485288383.62,30831,11.0,73452.5,-9.67,-42.31,-42.37,0,*57
1485288384.87,30832,11.0,73458.5,-9.67,-42.31,-42.57,0,*52
1485288386.07,30833,11.0,73456.3,-9.67,-42.37,-42.63,0,*52
1485288387.32,30834,11.0,73460.5,-9.67,-42.31,-42.57,0,*54
1485288388.53,30835,11.0,73460.3,-9.67,-42.37,-42.63,0,*54
1485288389.78,30836,11.0,73456.8,-9.67,-42.31,-42.57,0,*56
1485288390.98,30837,11.0,73458.8,-9.67,-42.37,-42.63,0,*56
1485288392.18,30838,11.0,73456.8,-9.67,-42.13,-42.37,0,*5E
1485288393.41,30839,11.0,73456.8,-9.71,-41.81,-42.13,0,*56
1485288394.66,30840,11.0,73456.0,-9.67,-41.81,-42.19,0,*55
1485288395.92,30841,11.0,73458.8,-9.67,-42.19,-42.31,0,*5C
1485288397.18,30842,11.0,73462.5,-9.67,-42.19,-42.31,0,*5F
1485288398.38,30843,11.0,73460.5,-9.67,-42.13,-42.37,0,*52
1485288399.63,30844,11.0,73456.5,-9.67,-42.19,-42.45,0,*5A
1485288400.87,30845,11.0,73458.8,-9.67,-42.19,-42.63,0,*5F
1485288402.1,30846,11.0,73458.5,-9.67,-42.13,-42.31,0,*51
1485288403.33,30847,11.0,73458.8,-9.67,-41.99,-42.19,0,*5B
1485288404.58,30848,11.0,73456.3,-9.67,-41.55,-41.81,0,*56
1485288405.81,30849,11.0,73458.8,-9.67,-41.99,-42.31,0,*5F
1485288407.04,30850,11.0,73458.8,-9.65,-42.25,-42.37,0,*57
1485288408.29,30851,11.0,73460.5,-9.65,-42.05,-42.25,0,*57
1485288409.52,30852,11.0,73456.8,-9.65,-41.87,-42.25,0,*5D
1485288410.77,30853,11.0,73458.5,-9.65,-41.87,-42.05,0,*5E
1485288412.02,30854,11.0,73458.3,-9.65,-41.93,-42.25,0,*5E
1485288413.27,30855,11.0,73456.8,-9.65,-41.93,-42.13,0,*5A
1485288414.53,30856,11.0,73458.3,-9.65,-41.87,-42.05,0,*5B
1485288415.75,30857,11.0,73458.3,-9.65,-42.13,-42.37,0,*55
1485288417.0,30858,11.0,73458.5,-9.65,-42.05,-42.13,0,*5B
1485288418.25,30859,11.0,73458.5,-9.65,-41.73,-41.93,0,*53
1485288419.47,30860,11.0,73452.8,-9.63,-42.05,-42.13,0,*56
1485288420.7,30861,11.0,73456.3,-9.65,-42.13,-42.37,0,*50
1485288421.93,30862,11.0,73456.3,-9.65,-42.13,-42.51,0,*53
1485288423.19,30863,11.0,73456.3,-9.65,-42.13,-42.31,0,*54
1485288424.44,30864,11.0,73456.0,-9.65,-41.87,-42.05,0,*5A
1485288425.67,30865,11.0,73456.5,-9.65,-42.25,-42.37,0,*51
1485288426.92,30866,11.0,73456.0,-9.65,-42.25,-42.57,0,*54
1485288428.16,30867,11.0,73460.8,-9.65,-42.25,-42.51,0,*53
1485288429.41,30868,11.0,73456.8,-9.67,-42.31,-42.57,0,*5D
1485288430.64,30869,11.0,73456.3,-9.65,-42.25,-42.51,0,*5D
1485288431.89,30870,11.0,73458.5,-9.65,-41.93,-42.25,0,*58
1485288433.12,30871,11.0,73458.0,-9.63,-42.05,-42.25,0,*53
1485288434.34,30872,11.0,73456.3,-9.63,-41.87,-41.93,0,*57
1485288435.59,30873,11.0,73456.3,-9.65,-42.05,-42.25,0,*57
1485288436.87,30874,11.0,73454.3,-9.65,-41.93,-42.05,0,*5E
1485288438.12,30875,11.0,73458.8,-9.65,-42.05,-42.25,0,*51
1485288439.37,30876,11.0,73456.3,-9.65,-41.87,-41.93,0,*55
1485288440.65,30877,11.0,73454.5,-9.65,-42.05,-42.31,0,*56
1485288441.87,30878,11.0,73456.5,-9.65,-42.13,-42.37,0,*58
1485288443.1,30879,11.0,73458.5,-9.65,-42.25,-42.37,0,*5C
1485288444.32,30880,11.0,73456.3,-9.63,-41.73,-42.05,0,*5D
1485288445.55,30881,11.0,73460.5,-9.63,-41.93,-42.25,0,*50
1485288446.8,30882,11.0,73462.8,-9.65,-41.73,-42.05,0,*59
1485288448.0,30883,11.0,73460.5,-9.63,-41.49,-41.73,0,*55
1485288449.23,30884,11.0,73460.3,-9.65,-41.73,-41.87,0,*56
1485288450.48,30885,11.0,73458.5,-9.63,-41.67,-41.93,0,*51
1485288451.76,30886,11.0,73460.8,-9.61,-41.81,-42.05,0,*54
1485288453.02,30887,11.0,73460.0,-9.61,-41.61,-41.67,0,*5C
1485288454.27,30888,11.0,73456.0,-9.61,-41.49,-41.81,0,*51
1485288455.53,30889,11.0,73460.3,-9.61,-41.49,-41.67,0,*58
1485288456.76,30890,11.0,73462.8,-9.61,-41.41,-41.61,0,*5E
1485288457.99,30891,11.0,73462.8,-9.61,-41.49,-41.61,0,*57
1485288459.19,30892,11.0,73462.0,-9.59,-41.49,-41.61,0,*5F
1485288460.44,30893,11.0,73458.8,-9.61,-41.49,-41.81,0,*5B
1485288461.65,30894,11.0,73458.3,-9.59,-41.87,-41.99,0,*5C
1485288462.88,30895,11.0,73460.0,-9.59,-41.81,-41.99,0,*5B
1485288464.13,30896,11.0,73456.3,-9.61,-41.87,-42.05,0,*53
1485288465.39,30897,11.0,73456.0,-9.59,-42.05,-42.31,0,*57
1485288466.64,30898,11.0,73456.0,-9.59,-42.19,-42.45,0,*56
1485288467.9,30899,11.0,73456.5,-9.59,-42.05,-42.19,0,*53
1485288469.13,30900,11.0,73458.3,-9.59,-42.05,-42.25,0,*5D
1485288470.42,30901,11.0,73454.3,-9.61,-42.19,-42.31,0,*5F
1485288471.64,30902,11.0,73458.5,-9.59,-42.05,-42.25,0,*5F
1485288472.87,30903,11.0,73456.8,-9.59,-42.05,-42.25,0,*5E
1485288474.07,30904,11.0,73458.8,-9.59,-41.99,-42.25,0,*5F
1485288475.32,30905,11.0,73460.3,-9.61,-41.99,-42.05,0,*57
1485288476.56,30906,11.0,73460.0,-9.59,-42.31,-42.63,0,*5E
1485288477.81,30907,11.0,73462.0,-9.59,-42.05,-42.19,0,*55
1485288479.04,30908,11.0,73458.0,-9.59,-41.99,-42.19,0,*5C
1485288480.27,30909,11.0,73462.3,-9.59,-41.99,-42.19,0,*5D
1485288481.5,30910,11.0,73458.8,-9.59,-41.99,-42.19,0,*55
1485288482.71,30911,11.0,73458.8,-9.59,-41.99,-42.25,0,*5B
1485288483.99,30912,11.0,73460.0,-9.61,-41.81,-42.05,0,*58
1485288485.25,30913,11.0,73458.0,-9.61,-41.87,-42.19,0,*52
1485288486.5,30914,11.0,73458.0,-9.59,-42.05,-42.31,0,*5D
1485288487.78,30915,11.0,73458.5,-9.57,-42.19,-42.45,0,*5C
1485288489.04,30916,11.0,73458.8,-9.57,-42.13,-42.19,0,*5C
1485288490.25,30917,11.0,73456.0,-9.59,-42.25,-42.51,0,*5A
1485288491.49,30918,11.0,73454.8,-9.59,-42.31,-42.63,0,*51
1485288492.74,30919,11.0,73454.0,-9.59,-42.31,-42.69,0,*5A
1485288494.02,30920,11.0,73450.8,-9.61,-42.19,-42.45,0,*5F
1485288495.28,30921,11.0,73452.8,-9.61,-42.25,-42.45,0,*51
1485288496.54,30922,11.0,73452.8,-9.59,-42.19,-42.31,0,*55
1485288497.83,30923,11.0,73450.0,-9.61,-42.19,-42.31,0,*5F
1485288499.06,30924,11.0,73448.8,-9.59,-41.81,-41.99,0,*50
1485288500.32,30925,11.0,73450.8,-9.59,-42.05,-42.31,0,*5F
1485288501.57,30926,11.0,73448.5,-9.59,-42.19,-42.45,0,*52
1485288502.79,30927,11.0,73454.3,-9.59,-42.25,-42.63,0,*58
1485288504.07,30928,11.0,73450.3,-9.61,-42.19,-42.45,0,*57